CAPE
1670 1552 1496 1181 1274 1422 1198 949 795 652 487 500 234 87 81 82 110 51 118 54 75 35
1399 1152 710 481 24 189 716 674 551 321 354 236 129 77 101 119 40 108 128 143 59 108
1259 1000 551 246 47 91 106 182 230 259 248 123 60 104 104 33 93 73 106 116 117 141
693 607 346 140 40 88 177 196 262 259 60 58 99 62 54 72 24 5 26 51 27 46
446 201 90 48 13 31 198 267 187 73 32 46 26 28 66 27 3 17 3 139 95 82
195 151 124 80 66 69 108 70 9 14 31 89 35 25 32 19 1 37 74 75 38 89
194 101 38 33 68 63 61 26 4 21 62 80 39 35 50 21 21 22 35 65 87 65
111 9 23 19 45 25 23 8 10 10 12 40 39 31 35 22 19 58 57 83 68 29
135 25 14 28 21 25 20 5 10 9 11 13 13 51 37 24 32 70 68 41 7 0
166 117 50 34 18 20 11 14 6 3 11 8 32 46 28 19 29 47 16 0 1 0
3 27 2 7 6 11 1 0 0 0 0 0 4 38 25 19 36 14 10 0 0 2
7 4 9 8 3 2 1 0 0 3 22 17 25 8 3 18 20 5 0 0 0 0
26 10 3 0 6 8 0 2 17 6 7 5 7 2 32 4 0 0 0 0 0 0
19 8 1 5 13 7 5 26 5 4 0 23 9 0 0 7 0 0 0 0 0 0
CIN
-57 -12 -17 -24 -1 -16 -36 -31 -22 -6 -1 0 0 0 0 0 0 -7 -3 -10 -3 -2
-21 -28 -59 -123 -17 -13 -26 -19 -16 -16 -5 0 0 0 0 0 -9 0 0 0 0 0
-11 -41 -53 -44 -173 -30 -31 -58 -26 -4 0 0 -4 0 0 -5 0 0 0 0 0 0
-45 -48 -59 -47 -121 -37 -4 -47 -3 0 -29 -18 -7 -2 -3 0 -2 -2 -22 -1 -2 -1
-11 -37 -14 -1 -113 -65 -2 -1 -2 -7 -36 -4 -2 -25 0 0 0 -3 -26 0 0 -1
-18 -31 -37 -55 -59 -24 -13 -3 -42 -25 -13 0 -15 -1 -7 -8 -2 -3 0 0 -1 -5
-14 -36 -57 -56 -27 -15 0 -1 0 -1 -9 0 -13 -9 -1 -4 -21 -17 -7 0 0 -3
-10 -61 -26 -23 -3 -1 0 -1 -7 0 0 -4 -4 0 -1 -2 -5 -1 0 0 -1 -12
-25 -72 -47 -18 -1 0 -1 0 0 0 0 0 0 -3 -3 0 0 -1 0 -4 0 0
-5 -10 -11 -12 0 -1 0 0 0 0 0 0 0 0 0 -2 0 0 -6 0 0 0
-11 -6 0 0 0 0 0 0 0 0 0 0 0 0 0 -4 0 -2 0 0 0 0
0 -1 0 0 0 0 0 0 0 0 0 0 0 0 0 0 0 0 0 0 0 0
0 -9 -10 0 0 0 0 0 0 0 -3 -3 0 0 0 0 0 0 0 0 0 0
-1 0 0 -4 0 0 -1 -1 0 -1 0 -2 -5 -3 0 0 0 0 0 0 0 0
Wind_Speed
21 37 48 53 47 41 37 36 33 32 28 29 30 nan nan nan 29 nan 27 nan nan nan
26 32 48 55 nan 64 52 36 37 33 29 30 29 nan 29 28 nan 26 25 24 nan 15
27 32 35 50 nan nan 25 37 40 32 32 28 nan 27 27 nan nan nan 22 18 18 14
29 35 38 37 nan nan 25 31 36 27 nan nan nan nan nan nan nan nan nan nan nan nan
32 28 nan nan nan nan 27 35 35 nan nan nan nan nan nan nan nan nan nan 13 nan nan
30 30 33 nan nan nan 29 nan nan nan nan nan nan nan nan nan nan nan nan nan nan nan
28 28 nan nan nan nan nan nan nan nan nan nan nan nan nan nan nan nan nan nan nan nan
30 nan nan nan nan nan nan nan nan nan nan nan nan nan nan nan nan nan nan nan nan nan
28 nan nan nan nan nan nan nan nan nan nan nan nan nan nan nan nan nan nan nan nan nan
26 26 nan nan nan nan nan nan nan nan nan nan nan nan nan nan nan nan nan nan nan nan
nan nan nan nan nan nan nan nan nan nan nan nan nan nan nan nan nan nan nan nan nan nan
nan nan nan nan nan nan nan nan nan nan nan nan nan nan nan nan nan nan nan nan nan nan
nan nan nan nan nan nan nan nan nan nan nan nan nan nan nan nan nan nan nan nan nan nan
nan nan nan nan nan nan nan nan nan nan nan nan nan nan nan nan nan nan nan nan nan nan
Wind_Direction
248 237 236 240 236 252 244 251 257 258 261 267 270 nan nan nan 281 nan 293 nan nan nan
265 259 242 241 nan 219 241 241 253 255 264 266 270 nan 276 278 nan 291 298 304 nan 308
264 260 263 248 nan nan 247 256 250 249 258 263 nan 272 277 nan nan nan 289 301 306 298
259 268 266 260 nan nan 238 263 258 243 nan nan nan nan nan nan nan nan nan nan nan nan
254 263 nan nan nan nan 234 248 250 nan nan nan nan nan nan nan nan nan nan 284 nan nan
250 269 281 nan nan nan 242 nan nan nan nan nan nan nan nan nan nan nan nan nan nan nan
248 263 nan nan nan nan nan nan nan nan nan nan nan nan nan nan nan nan nan nan nan nan
244 nan nan nan nan nan nan nan nan nan nan nan nan nan nan nan nan nan nan nan nan nan
247 nan nan nan nan nan nan nan nan nan nan nan nan nan nan nan nan nan nan nan nan nan
232 241 nan nan nan nan nan nan nan nan nan nan nan nan nan nan nan nan nan nan nan nan
nan nan nan nan nan nan nan nan nan nan nan nan nan nan nan nan nan nan nan nan nan nan
nan nan nan nan nan nan nan nan nan nan nan nan nan nan nan nan nan nan nan nan nan nan
nan nan nan nan nan nan nan nan nan nan nan nan nan nan nan nan nan nan nan nan nan nan
nan nan nan nan nan nan nan nan nan nan nan nan nan nan nan nan nan nan nan nan nan nan